Stations météo

réclame
Mon MeteoGroup
Beauvechain, Belgique (6458): Température de l'air & dewpoint: 18.06.2018 01:00:00 - 24.06.2018 01:00:00 (CEST)Beauvechain, Belgique (6458): Vitesse du vent & gusts: 18.06.2018 01:00:00 - 24.06.2018 01:00:00 (CEST)Beauvechain, Belgique (6458): Direction du vent: 18.06.2018 01:00:00 - 24.06.2018 01:00:00 (CEST)Beauvechain, Belgique (6458): reduced air pressure: 18.06.2018 01:00:00 - 24.06.2018 01:00:00 (CEST)Beauvechain, Belgique (6458): visibility: 18.06.2018 01:00:00 - 24.06.2018 01:00:00 (CEST)
Date & Time tt [°C] td [°C] ff [km/h] ff [knt] fx [km/h] fx [knt] dd ppp [hPa] vv [km]
24.06.2018 01:00:00 13,1 7,0 4 2 7 4 N 1025,2 20
24.06.2018 00:00:00 14,4 5,8 4 2 7 4 N 1025,2 20
23.06.2018 23:00:00 14,8 6,1 4 2 - - N 1025,5 20
23.06.2018 22:00:00 17,2 7,6 4 2 4 2 N 1025,0 20
23.06.2018 21:00:00 17,7 7,6 4 2 7 4 N 1025,0 20
23.06.2018 20:00:00 18,5 6,6 4 2 - - N 1025,0 20
23.06.2018 19:00:00 19,5 5,9 7 4 14 8 N 1025,4 20
23.06.2018 18:00:00 19,6 6,1 11 6 25 14 NW 1025,9 20
23.06.2018 17:00:00 19,6 8,5 8 4 - - NNW 1026,2 10
23.06.2018 16:00:00 18,5 8,9 7 4 11 6 N 1027,0 25
23.06.2018 15:00:00 17,8 8,2 4 2 18 10 N 1027,5 25
23.06.2018 14:00:00 17,2 7,9 4 2 - - N 1028,2 25
23.06.2018 13:00:00 17,1 8,1 4 2 14 8 N 1028,7 25
23.06.2018 12:00:00 16,1 8,1 4 2 14 8 N 1028,7 25
23.06.2018 11:00:00 15,0 7,7 7 4 - - NNE 1029,2 25
23.06.2018 10:00:00 13,1 8,5 4 2 11 6 N 1029,5 12
23.06.2018 09:00:00 11,8 8,0 4 2 11 6 N 1029,5 12
23.06.2018 08:00:00 10,1 7,5 4 2 - - N 1029,5 12
23.06.2018 07:00:00 8,3 7,0 4 2 7 4 N 1029,5 13
23.06.2018 06:00:00 6,8 5,8 4 2 7 4 N 1029,5 12
23.06.2018 05:00:00 7,4 6,0 4 2 - - N 1029,0 15
23.06.2018 04:00:00 7,5 5,9 4 2 4 2 N 1029,2 16
23.06.2018 03:00:00 7,9 6,2 4 2 7 4 N 1029,5 16
23.06.2018 02:00:00 8,8 6,6 4 2 - - N 1029,7 18
23.06.2018 01:00:00 10,8 7,0 7 4 14 8 NNW 1029,7 19
23.06.2018 00:00:00 11,8 7,8 7 4 18 10 NNW 1029,7 20
22.06.2018 23:00:00 12,2 7,5 11 6 - - NW 1029,7 19
22.06.2018 22:00:00 12,5 7,4 11 6 22 12 NW 1029,4 20
22.06.2018 21:00:00 13,0 7,1 11 6 25 14 NW 1029,2 19
22.06.2018 20:00:00 13,7 7,2 18 10 - - NW 1029,0 20
22.06.2018 19:00:00 15,1 7,4 22 12 29 16 NW 1028,7 20
22.06.2018 18:00:00 14,3 7,4 18 10 32 18 NW 1028,9 20
22.06.2018 17:00:00 14,5 6,8 22 12 - - NW 1028,7 20
22.06.2018 16:00:00 15,1 6,3 22 12 36 19 NW 1028,5 20
22.06.2018 15:00:00 15,0 5,4 18 10 40 21 NNW 1028,5 20
22.06.2018 14:00:00 15,1 5,8 22 12 - - NNW 1028,5 20
22.06.2018 13:00:00 16,1 5,0 22 12 43 23 NW 1028,0 20
22.06.2018 12:00:00 16,3 1,3 25 14 40 21 NNW 1027,7 20
22.06.2018 11:00:00 15,5 4,1 18 10 - - NW 1027,5 20
22.06.2018 10:00:00 14,4 8,3 14 8 29 16 WNW 1027,7 20
22.06.2018 09:00:00 13,2 7,9 15 8 29 16 WNW 1027,4 10
22.06.2018 08:00:00 11,3 6,7 14 8 - - W 1027,4 20
22.06.2018 07:00:00 9,1 5,5 14 8 18 10 WSW 1027,4 20
22.06.2018 06:00:00 7,5 4,8 11 6 18 10 WSW 1027,5 20
22.06.2018 05:00:00 7,4 4,7 11 6 - - WSW 1027,2 20
22.06.2018 04:00:00 7,5 4,7 7 4 14 8 WSW 1027,2 20
22.06.2018 03:00:00 7,5 5,0 11 6 14 8 WSW 1027,4 20
22.06.2018 02:00:00 8,3 5,0 7 4 - - WSW 1027,5 20
22.06.2018 01:00:00 8,6 5,2 7 4 11 6 W 1027,7 20
22.06.2018 00:00:00 9,0 5,3 7 4 18 10 W 1027,9 20
21.06.2018 23:00:00 10,5 5,4 7 4 - - WNW 1027,5 20
21.06.2018 22:00:00 11,6 4,8 14 8 29 16 NW 1026,9 20
21.06.2018 21:00:00 13,3 4,1 18 10 36 19 NNW 1026,5 19
21.06.2018 20:00:00 13,8 6,1 18 10 - - NNW 1026,0 20
21.06.2018 19:00:00 13,8 6,1 22 12 36 19 NW 1025,7 20
21.06.2018 18:00:00 14,7 4,6 22 12 36 19 NNW 1025,2 15
21.06.2018 17:00:00 14,5 3,4 22 12 - - NW 1024,9 15
21.06.2018 16:00:00 15,0 3,5 22 12 32 18 NNW 1024,1 15
21.06.2018 15:00:00 16,1 5,5 25 14 40 21 NW 1023,2 15
21.06.2018 14:00:00 16,9 4,6 25 14 - - NW 1022,5 15
21.06.2018 13:00:00 16,1 4,8 22 12 40 21 NNW 1022,1 15
21.06.2018 12:00:00 16,8 6,1 18 10 36 19 NW 1021,7 15
21.06.2018 11:00:00 15,6 6,7 25 14 - - NW 1021,2 15
21.06.2018 10:00:00 14,9 9,9 21 11 40 21 NW 1020,2 10
21.06.2018 09:00:00 14,8 11,3 22 12 43 23 NW 1019,2 15
21.06.2018 08:00:00 15,8 13,1 14 8 - - W 1018,2 15
21.06.2018 07:00:00 15,3 13,9 14 8 25 14 W 1017,7 15
21.06.2018 06:00:00 15,3 13,9 14 8 25 14 W 1017,2 20
21.06.2018 05:00:00 15,3 13,7 11 6 - - WSW 1017,2 20
21.06.2018 04:00:00 15,7 13,4 14 8 22 12 WSW 1017,5 20
21.06.2018 03:00:00 16,7 13,4 14 8 22 12 SW 1017,6 20
21.06.2018 02:00:00 16,8 13,4 11 6 - - SW 1018,0 20
21.06.2018 01:00:00 17,7 14,2 7 4 14 8 W 1018,6 20
21.06.2018 00:00:00 18,6 14,1 11 6 14 8 SW 1018,5 20
20.06.2018 23:00:00 19,7 14,2 7 4 - - SW 1018,8 20
20.06.2018 22:00:00 20,7 14,1 7 4 18 10 WSW 1018,7 20
20.06.2018 21:00:00 22,3 14,5 11 6 22 12 W 1018,6 20
20.06.2018 20:00:00 24,4 13,8 11 6 - - W 1018,7 20
20.06.2018 19:00:00 25,6 13,4 14 8 25 14 W 1019,0 20
20.06.2018 18:00:00 25,0 14,8 14 8 25 14 W 1019,2 25
20.06.2018 17:00:00 26,3 14,6 14 8 - - WSW 1019,7 25
20.06.2018 16:00:00 25,6 13,9 14 8 22 12 W 1020,0 25
20.06.2018 15:00:00 25,4 14,6 11 6 22 12 W 1020,6 25
20.06.2018 14:00:00 24,2 15,1 11 6 - - SW 1021,2 25
20.06.2018 13:00:00 23,2 15,7 11 6 25 14 SW 1021,7 25
20.06.2018 12:00:00 21,7 15,2 11 6 22 12 WSW 1022,2 20
20.06.2018 11:00:00 20,5 15,2 11 6 - - SW 1022,7 20
20.06.2018 10:00:00 18,7 14,5 18 10 25 14 WSW 1022,8 20
20.06.2018 09:00:00 18,0 14,1 14 8 25 14 SW 1022,8 20
20.06.2018 08:00:00 17,5 14,1 14 8 - - SW 1022,8 15
20.06.2018 07:00:00 17,1 14,0 11 6 18 10 SW 1023,1 15
20.06.2018 06:00:00 16,7 13,8 7 4 18 10 SW 1023,1 15
20.06.2018 05:00:00 16,8 13,7 11 6 - - SW 1023,3 20
20.06.2018 04:00:00 17,1 13,7 7 4 18 10 SW 1023,7 20
20.06.2018 03:00:00 17,0 13,9 11 6 18 10 WSW 1024,0 20
20.06.2018 02:00:00 17,2 14,6 7 4 - - WSW 1024,4 20
20.06.2018 01:00:00 17,5 15,4 4 2 7 4 N 1024,5 20
20.06.2018 00:00:00 17,7 15,5 4 2 7 4 N 1024,7 20
19.06.2018 23:00:00 18,0 15,4 4 2 - - N 1024,7 20
19.06.2018 22:00:00 18,2 15,5 7 4 14 8 W 1024,5 20
19.06.2018 21:00:00 19,1 15,1 4 2 7 4 N 1024,2 20
19.06.2018 20:00:00 19,6 15,5 4 2 - - N 1024,2 20
19.06.2018 19:00:00 20,0 15,5 7 4 18 10 WSW 1024,5 20
19.06.2018 18:00:00 19,7 15,4 11 6 18 10 WSW 1024,7 15
19.06.2018 17:00:00 19,3 15,0 14 8 - - WSW 1025,0 15
19.06.2018 16:00:00 19,2 15,3 11 6 18 10 WSW 1025,2 15
19.06.2018 15:00:00 19,0 15,0 11 6 - - SW - 10
19.06.2018 14:00:00 18,8 15,1 11 6 - - SW 1025,2 15
19.06.2018 13:00:00 - - - - - - - - -
19.06.2018 12:00:00 17,5 15,4 11 6 22 12 W 1024,9 7
19.06.2018 11:00:00 17,7 14,9 11 6 - - WSW 1024,7 20
19.06.2018 10:00:00 17,5 14,8 14 8 25 14 WSW 1024,5 20
19.06.2018 09:00:00 16,7 14,6 14 8 22 12 WSW 1024,2 20
19.06.2018 08:00:00 16,2 14,3 14 8 - - WSW 1023,8 20
19.06.2018 07:00:00 16,0 14,0 14 8 25 14 SW 1023,5 20
19.06.2018 06:00:00 15,1 13,6 14 8 22 12 SW 1023,6 20
19.06.2018 05:00:00 14,3 12,9 14 8 - - SW 1023,2 20
19.06.2018 04:00:00 13,1 12,0 14 8 25 14 SW 1022,8 19
19.06.2018 03:00:00 13,5 11,4 14 8 25 14 SW 1022,7 18
19.06.2018 02:00:00 14,1 10,9 18 10 - - SW 1022,5 20
19.06.2018 01:00:00 14,8 10,6 18 10 25 14 WSW 1022,6 20
19.06.2018 00:00:00 15,6 11,5 14 8 25 14 WSW 1022,7 20
18.06.2018 23:00:00 15,5 11,5 7 4 - - SW 1022,5 20
18.06.2018 22:00:00 16,7 12,0 11 6 29 16 WSW 1021,8 20
18.06.2018 21:00:00 18,2 12,6 18 10 29 16 WSW 1021,3 20
18.06.2018 20:00:00 18,6 12,5 22 12 - - WSW 1021,2 20
18.06.2018 19:00:00 19,2 12,5 22 12 36 19 WSW 1021,0 20
18.06.2018 18:00:00 19,2 12,7 18 10 36 19 WSW 1021,2 20
18.06.2018 17:00:00 19,5 13,4 25 14 - - WSW 1021,2 20
18.06.2018 16:00:00 19,2 13,9 22 12 43 23 WSW 1021,2 15
18.06.2018 15:00:00 19,6 15,1 22 12 40 21 W 1021,2 15
18.06.2018 14:00:00 19,3 15,4 22 12 - - WSW 1021,2 8
18.06.2018 13:00:00 18,6 14,5 22 12 32 18 SW 1021,2 15
18.06.2018 12:00:00 17,1 14,8 25 14 36 19 SW 1021,2 8
18.06.2018 11:00:00 17,7 14,1 22 12 - - SW 1021,0 20
18.06.2018 10:00:00 17,5 13,4 22 12 36 19 SW 1020,6 20
18.06.2018 09:00:00 17,4 13,3 22 12 36 19 SW 1020,3 20
18.06.2018 08:00:00 16,7 12,1 14 8 - - SW 1020,2 20
18.06.2018 07:00:00 15,6 11,4 14 8 22 12 SW 1020,2 20
18.06.2018 06:00:00 15,0 11,1 11 6 18 10 SSW 1020,2 20
18.06.2018 05:00:00 15,0 11,0 11 6 - - SSW 1019,8 20
18.06.2018 04:00:00 14,6 11,1 7 4 11 6 SSW 1020,1 20
18.06.2018 03:00:00 15,0 11,1 7 4 11 6 S 1020,1 20
18.06.2018 02:00:00 15,3 10,8 4 2 - - N 1020,3 20
18.06.2018 01:00:00 15,3 10,2 7 4 11 6 SSW 1020,5 20

tt = Température de l'air
td = dewpoint
ff = Vitesse du vent
fx = gusts
dd = Direction du vent
ppp = reduced air pressure
vv = visibility

stations d'obs. à proximité